This is the latest recevied weather packets stored in our database for station/object IZ5MMH-4. If no packets are shown the sender has not sent any weather packets the latest 10 day(s).
| Time | Temp. | Humidity | Pressure | Rain* | Wind** | Luminosity | Snow |
|---|---|---|---|---|---|---|---|
| 1788106463 | 30.56° C | 56% | 1015.4 hPa | - | - | - | - |
| 1788105863 | 31.11° C | 54% | 1015.4 hPa | - | - | - | - |
| 1788105263 | 31.11° C | 56% | 1015.4 hPa | - | - | - | - |
| 1788104663 | 30.56° C | 56% | 1015.4 hPa | - | - | - | - |
| 1788104062 | 30.56° C | 56% | 1015.4 hPa | - | - | - | - |
| 1788103463 | 30.56° C | 57% | 1015.5 hPa | - | - | - | - |
| 1788102863 | 30.56° C | 58% | 1015.5 hPa | - | - | - | - |
| 1788102263 | 31.11° C | 57% | 1015.5 hPa | - | - | - | - |
| 1788101663 | 30.56° C | 57% | 1015.5 hPa | - | - | - | - |
| 1788101062 | 30.56° C | 56% | 1015.6 hPa | - | - | - | - |
| 1788100462 | 30.56° C | 57% | 1015.5 hPa | - | - | - | - |
| 1788099864 | 30.56° C | 57% | 1015.7 hPa | - | - | - | - |
| 1788099262 | 30.56° C | 58% | 1015.9 hPa | - | - | - | - |
| 1788098663 | 30.56° C | 58% | 1015.9 hPa | - | - | - | - |
| 1788098063 | 30.56° C | 57% | 1015.9 hPa | - | - | - | - |
| 1788097463 | 30.56° C | 58% | 1015.9 hPa | - | - | - | - |
| 1788096863 | 30.56° C | 60% | 1016 hPa | - | - | - | - |
| 1788096263 | 30.56° C | 59% | 1015.9 hPa | - | - | - | - |
| 1788095662 | 30.56° C | 55% | 1016 hPa | - | - | - | - |
| 1788095063 | 30.56° C | 55% | 1016.1 hPa | - | - | - | - |
| 1788094463 | 30.56° C | 58% | 1016.2 hPa | - | - | - | - |
| 1788093863 | 30.56° C | 58% | 1016.1 hPa | - | - | - | - |
| 1788093263 | 30.56° C | 58% | 1016.3 hPa | - | - | - | - |
| 1788092663 | 30.56° C | 58% | 1016.2 hPa | - | - | - | - |
| 1788092063 | 30° C | 59% | 1016.2 hPa | - | - | - | - |
* Rain since midnight (hover to see other rain measurements)
** Current wind speed in m/s (hover to see current wind gust speed)